Weather History for Bolton Field, OH

Change the Weather History Date:

Tuesday, January 8, 2013

  Actual Average Record
Temperature  
Mean Temperature 30 °F -  
Max Temperature 43 °F 36 °F 66 °F (2008)
Min Temperature 17 °F 23 °F 8 °F (2014)
Degree Days  
Heating Degree Days 36    
Moisture  
Dew Point 24 °F    
Average Humidity 86    
Maximum Humidity 100    
Minimum Humidity 61    
Precipitation  
Precipitation 0.00 in - - ()
Sea Level Pressure  
Sea Level Pressure 30.26 in    
Wind  
Wind Speed 5 mph (SSE)    
Max Wind Speed 7 mph    
Max Gust Speed -    
Visibility 7 miles    
Events Fog    
Averages and records for this station are not official NWS values.
T = Trace of Precipitation, MM = Missing Value Source: NWS Daily Summary

Daily Weather History Graph

Daily Weather History Graph

Search for Another Location

Airport:

Trip Planner

Search our weather history database for the weather conditions in past years. The results will help you decide how hot, cold, wet, or windy it might be!

Date:

Astronomy

Jan. 08, 2013 Rise Set
Actual Time 7:54 AM EST 5:25 PM EST
Civil Twilight 7:24 AM EST 5:55 PM EST
Nautical Twilight 6:50 AM EST 6:28 PM EST
Astronomical Twilight 6:17 AM EST 7:01 PM EST
Moon 4:25 AM EST (1/8) 2:26 PM EST (1/8)
Length of Visible Light 10h 31m
Length of Day
9h 30m
Waning Crescent, 14% of the Moon is Illuminated
Jan 8
Waning Crescent
Jan 11
New
Jan 18
First Quarter
Jan 26
Full
Feb 3
Last Quarter

Hourly Weather History & Observations

Time (EST) Temp. Windchill Dew Point Humidity Pressure Visibility Wind Dir Wind Speed Gust Speed Precip Events Conditions
12:15 AM 22.8 °F 14.5 °F 22.3 °F 98% 30.25 in 2.0 mi SE 6.9 mph - N/A   Clear
12:35 AM 23.7 °F 15.6 °F 22.6 °F 96% 30.24 in 7.0 mi SSE 6.9 mph - N/A   Clear
12:55 AM 24.8 °F 17.9 °F 22.5 °F 91% 30.25 in 7.0 mi SSE 5.8 mph - N/A   Clear
1:15 AM 24.6 °F 18.8 °F 22.1 °F 90% 30.24 in 7.0 mi SSE 4.6 mph - N/A   Clear
1:55 AM 24.3 °F 18.4 °F 21.9 °F 91% 30.22 in 7.0 mi SSE 4.6 mph - N/A   Clear
2:15 AM 23.7 °F 17.8 °F 21.2 °F 90% 30.22 in 7.0 mi SSE 4.6 mph - N/A   Clear
2:35 AM 23.5 °F - 21.2 °F 91% 30.23 in 7.0 mi Calm Calm - N/A   Clear
2:55 AM 23.5 °F - 21.2 °F 91% 30.24 in 7.0 mi North - - N/A   Clear
3:15 AM 23.0 °F - 21.0 °F 92% 30.25 in 7.0 mi North - - N/A   Clear
3:35 AM 20.5 °F - 19.0 °F 94% 30.26 in 4.0 mi Calm Calm - N/A   Clear
3:55 AM 19.6 °F - 18.1 °F 94% 30.26 in 3.0 mi North - - N/A   Clear
4:15 AM 19.9 °F - 18.9 °F 96% 30.26 in 3.0 mi North - - N/A   Clear
4:35 AM 17.6 °F - 16.2 °F 94% 30.26 in 0.5 mi North - - N/A Fog Light Freezing Fog
4:55 AM 17.2 °F - 15.8 °F 94% 30.26 in 1.8 mi North - - N/A   Scattered Clouds
5:15 AM 20.5 °F - 19.4 °F 96% 30.25 in 2.5 mi Calm Calm - N/A   Clear
5:35 AM 19.8 °F 13.2 °F 18.9 °F 96% 30.26 in 2.5 mi SSE 4.6 mph - N/A   Clear
5:55 AM 21.0 °F 14.6 °F 19.9 °F 96% 30.26 in 3.0 mi SSE 4.6 mph - N/A   Clear
6:15 AM 19.6 °F 13.0 °F 18.3 °F 95% 30.27 in 3.0 mi SSE 4.6 mph - N/A   Clear
6:35 AM 19.8 °F 13.2 °F 18.5 °F 95% 30.27 in 4.0 mi South 4.6 mph - N/A   Clear
6:55 AM 21.4 °F 13.8 °F 20.3 °F 96% 30.28 in 5.0 mi South 5.8 mph - N/A   Clear
7:15 AM 22.5 °F 14.1 °F 21.2 °F 95% 30.28 in 5.0 mi SSE 6.9 mph - N/A   Clear
7:20 AM 21.2 °F 14.9 °F 21.2 °F 100% 30.28 in 7.0 mi SSE 4.6 mph - N/A   Clear
7:50 AM 24.8 °F 17.9 °F 21.2 °F 86% 30.29 in 7.0 mi South 5.8 mph - N/A   Clear
9:50 AM 24.8 °F 19.1 °F 21.2 °F 86% 30.32 in 7.0 mi South 4.6 mph - N/A   Clear
10:50 AM 30.2 °F - 24.8 °F 80% 30.33 in 7.0 mi Calm Calm - N/A   Clear
11:52 AM 35.6 °F - 26.6 °F 70% 30.31 in 10.0 mi Calm Calm - N/A   Clear
12:55 PM 37.4 °F 34.9 °F 28.4 °F 70% 30.29 in 7.0 mi SE 3.5 mph - N/A   Clear
2:51 PM 41.0 °F 38.0 °F 30.2 °F 65% 30.27 in 7.0 mi SSE 4.6 mph - N/A   Clear
3:50 PM 42.8 °F 38.6 °F 30.2 °F 61% 30.28 in 7.0 mi South 6.9 mph - N/A   Clear
4:50 PM 42.8 °F - 30.2 °F 61% 30.28 in 10.0 mi Calm Calm - N/A   Clear
6:50 PM 35.6 °F 30.7 °F 28.4 °F 75% 30.27 in 10.0 mi ESE 5.8 mph - N/A   Clear
8:15 PM 36.1 °F 33.5 °F 31.8 °F 84% 30.27 in 10.0 mi ESE 3.5 mph - N/A   Clear
8:35 PM 33.6 °F 29.4 °F 29.3 °F 84% 30.27 in 10.0 mi SE 4.6 mph - N/A   Clear
8:55 PM 33.1 °F 30.0 °F 29.7 °F 87% 30.27 in 10.0 mi SSE 3.5 mph - N/A   Clear
9:15 PM 34.0 °F 29.8 °F 30.2 °F 86% 30.26 in 10.0 mi SE 4.6 mph - N/A   Clear
9:35 PM 34.7 °F 29.6 °F 29.3 °F 81% 30.25 in 10.0 mi SE 5.8 mph - N/A   Clear
9:55 PM 35.8 °F 30.9 °F 29.5 °F 78% 30.24 in 10.0 mi SE 5.8 mph - N/A   Clear
10:15 PM 36.3 °F 31.6 °F 29.5 °F 76% 30.25 in 10.0 mi SSE 5.8 mph - N/A   Clear
10:35 PM 36.0 °F 30.3 °F 29.1 °F 76% 30.25 in 10.0 mi SSE 6.9 mph - N/A   Clear
10:55 PM 35.4 °F 29.7 °F 28.6 °F 76% 30.25 in 10.0 mi SSE 6.9 mph - N/A   Clear
11:15 PM 35.1 °F 29.3 °F 28.2 °F 76% 30.25 in 10.0 mi SSE 6.9 mph - N/A   Clear
11:35 PM 34.9 °F 29.9 °F 27.7 °F 75% 30.24 in 10.0 mi SSE 5.8 mph - N/A   Clear